Home   Weather   Muttenz   Past weeks

Flag for Switzerland Past Weather in Muttenz, Basel-Land, Switzerland — Yesterday and Last 2 Weeks

Now
57 °F

Clear.


Feels Like: 57 °F
Forecast: 55 / 80 °F
Wind: 2 mph from West

Location: Bale-Mulhouse

Current Time: Sep 1, 2016 at 7:37:24 AM

Latest Report: Sep 1, 2016 at 7:00 AM


Visibility: 10 mi

Pressure: 30.21 "Hg

Humidity: 94%

Dew Point: 55 °F

Location of MuttenzLocation

Past Weather in Muttenz — Graph

°F

Muttenz Temperature Yesterday

Maximum temperature yesterday: 84 °F (at 3:30 PM)
Minimum temperature yesterday: 54 °F (at 6:30 AM)
Average temperature yesterday: 69 °F

High & Low Weather Summary for the Past Weeks

 TemperatureHumidityPressure
High95 °F (Aug 26, 4:30 PM)100% (Aug 18, 12:00 AM)30.39 "Hg (Aug 18, 12:00 AM)
Low52 °F (Aug 22, 2:30 AM)20% (Aug 27, 5:00 PM)29.83 "Hg (Aug 17, 4:30 PM)
Average69 °F73%30.09 "Hg
* Reported Aug 17 6:00 AM — Sep 1 6:30 AM, Muttenz, Weather by CustomWeather, © 2016

Note: Actual official high and low records may vary slightly from our data, if they occured in-between our weather recording intervals... More about our weather records

Advertising

Muttenz Weather History for the Previous 24 Hours

Scroll right to see more
 ConditionsComfort  
Time TempWeatherWind HumidityBarometerVisibility
6:30 AM
Thu, Sep 1
57 °FClear.2 mph100%30.18 "Hg10 mi
6:00 AM57 °FPartly cloudy.1 mph94%30.18 "HgN/A
5:30 AM59 °FPartly cloudy.2 mph94%30.18 "HgN/A
5:00 AM57 °FClear.No wind100%30.18 "Hg10 mi
4:30 AM57 °FClear.2 mph94%30.18 "Hg10 mi
4:00 AM59 °FClear.1 mph94%30.18 "Hg10 mi
3:30 AM61 °FClear.2 mph88%30.18 "Hg10 mi
3:00 AM61 °FClear.2 mph94%30.18 "Hg10 mi
2:30 AM63 °FClear.3 mph88%30.18 "Hg10 mi
2:00 AM63 °FPassing clouds.2 mph88%30.18 "HgN/A
1:30 AM64 °FPassing clouds.1 mph88%30.18 "HgN/A
1:00 AM64 °FPassing clouds.3 mph88%30.18 "HgN/A
12:30 AM66 °FClear.3 mph83%30.18 "Hg10 mi
12:00 AM66 °FClear.No wind83%30.15 "Hg10 mi
11:30 PM
Wed, Aug 31
66 °FClear.5 mph83%30.15 "Hg10 mi
11:00 PM66 °FClear.6 mph78%30.15 "Hg10 mi
10:30 PM68 °FClear.5 mph78%30.15 "Hg10 mi
10:00 PM72 °FClear.5 mph65%30.15 "Hg10 mi
9:30 PM72 °FPartly cloudy.6 mph69%30.15 "HgN/A
9:00 PM72 °FBroken clouds.6 mph69%30.12 "HgN/A
8:30 PM75 °FBroken clouds.3 mph61%30.12 "HgN/A
8:00 PM79 °FBroken clouds.3 mph51%30.09 "HgN/A
7:30 PM81 °FBroken clouds.5 mph48%30.09 "HgN/A
7:00 PM81 °FPartly sunny.3 mph48%30.09 "HgN/A
6:30 PM82 °FScattered clouds.5 mph48%30.09 "HgN/A
6:00 PM81 °FScattered clouds.5 mph51%30.09 "HgN/A
5:30 PM81 °FScattered clouds.6 mph48%30.09 "HgN/A
5:00 PM82 °FScattered clouds.7 mph45%30.09 "HgN/A
4:30 PM84 °FScattered clouds.8 mph40%30.09 "HgN/A
4:00 PM84 °FPassing clouds.7 mph37%30.09 "HgN/A
3:30 PM84 °FPassing clouds.6 mph37%30.12 "HgN/A
3:00 PM82 °FPassing clouds.5 mph42%30.12 "HgN/A
2:30 PM81 °FPassing clouds.5 mph48%30.12 "HgN/A
2:00 PM81 °FPassing clouds.3 mph48%30.12 "HgN/A
1:30 PM79 °FPassing clouds.3 mph54%30.15 "HgN/A
1:00 PM79 °FPassing clouds.3 mph54%30.15 "HgN/A
12:30 PM77 °FPassing clouds.3 mph54%30.15 "HgN/A
12:00 PM77 °FPassing clouds.2 mph54%30.15 "HgN/A
11:30 AM75 °FPassing clouds.2 mph61%30.15 "HgN/A
11:00 AM72 °FPassing clouds.3 mph65%30.15 "HgN/A
10:30 AM72 °FSunny.2 mph65%30.15 "Hg10 mi
10:00 AM70 °FSunny.3 mph64%30.15 "Hg10 mi
9:30 AM66 °FSunny.2 mph73%30.15 "Hg10 mi
9:00 AM64 °FSunny.2 mph83%30.15 "Hg10 mi
8:30 AM59 °FSunny.1 mph94%30.15 "Hg10 mi
8:00 AM57 °FSunny.2 mph94%30.15 "Hg10 mi
7:30 AM54 °FClear.2 mph94%30.15 "Hg10 mi
7:00 AM54 °FClear.2 mph94%30.15 "Hg10 mi
Weather by CustomWeather, © 2016

See weather overviewHow to use our weather pages